FW9412 Weather Reports


Display with metric or nautical units.
time (UTC)temp
F
wind
direction
speed
MPH
gust
MPH
rain 1hr
in
rain 24hr
in
rain mn
in
humidity
%
barometer
mb
20260508012513 43 162 0.0 0.0 0.00 0.00 0.00 62 1010.0
20260508012010 44 162 0.0 0.0 0.00 0.00 0.00 65 1010.3
20260508011509 44 162 0.0 0.0 0.00 0.00 0.00 61 1010.2
20260508011006 44 162 0.0 0.0 0.00 0.00 0.00 61 1010.1
20260508010502 45 162 0.0 0.0 0.00 0.00 0.00 59 1009.9
20260508005959 45 162 0.0 0.0 0.00 0.00 0.00 58 1010.1
20260508005456 45 162 0.0 0.0 0.00 0.00 0.00 59 1010.0
20260508004953 45 162 0.0 0.0 0.00 0.00 0.00 58 1010.1
20260508004449 45 162 0.0 0.0 0.00 0.00 0.00 57 1010.0
20260508003946 45 162 0.0 0.0 0.00 0.00 0.00 56 1009.7
20260508003443 46 162 0.0 0.0 0.00 0.00 0.00 57 1009.7
20260508002940 46 162 0.0 0.0 0.00 0.00 0.00 55 1009.8
20260508002436 46 162 0.0 0.0 0.00 0.00 0.00 56 1010.0
20260508001932 46 163 0.0 0.0 0.00 0.00 0.00 55 1010.0
20260508001429 46 163 0.0 0.0 0.00 0.00 0.00 55 1009.8
20260508000925 46 163 0.0 0.0 0.00 0.00 0.00 54 1009.9
20260508000421 46 162 0.0 0.0 0.00 0.00 0.00 53 1009.6
20260507235918 46 162 0.0 0.0 0.00 0.00 0.00 53 1009.8
20260507235415 46 163 0.0 1.0 0.00 0.00 0.00 52 1009.8
20260507234912 46 179 1.0 1.0 0.00 0.00 0.00 51 1009.8
20260507234409 47 159 0.0 0.0 0.00 0.00 0.00 53 1009.6
20260507233906 47 154 0.0 1.0 0.00 0.00 0.00 54 1009.7
20260507233403 47 169 1.0 1.0 0.00 0.00 0.00 52 1009.6
20260507232901 47 136 0.0 0.0 0.00 0.00 0.00 53 1009.6
20260507232357 47 163 0.0 0.0 0.00 0.00 0.00 54 1009.5
20260507231855 47 157 0.0 1.0 0.00 0.00 0.00 55 1009.4
20260507231351 47 157 1.0 1.0 0.00 0.00 0.00 52 1009.5
20260507230847 48 158 0.0 1.0 0.00 0.00 0.00 54 1009.6
20260507230345 48 152 0.0 0.0 0.00 0.00 0.00 54 1009.5
20260507225844 48 176 1.0 1.0 0.00 0.00 0.00 55 1009.5
20260507225341 48 204 1.0 2.0 0.00 0.00 0.00 53 1009.5
20260507224837 49 133 1.0 1.0 0.00 0.00 0.00 54 1009.8
20260507224334 49 134 0.0 1.0 0.00 0.00 0.00 51 1009.7
20260507223830 49 197 3.0 3.0 0.00 0.00 0.00 53 1009.4
20260507223326 49 188 1.0 1.0 0.00 0.00 0.00 51 1009.5
20260507222824 50 161 0.0 1.0 0.00 0.00 0.00 54 1009.6
20260507222320 50 167 0.0 1.0 0.00 0.00 0.00 51 1009.4
20260507221817 50 216 2.0 2.0 0.00 0.00 0.00 50 1009.5
20260507221313 50 199 1.0 1.0 0.00 0.00 0.00 53 1009.4
20260507220809 50 230 2.0 2.0 0.00 0.00 0.00 52 1009.6
20260507220308 50 168 1.0 2.0 0.00 0.00 0.00 52 1009.4
20260507215804 50 212 2.0 2.0 0.00 0.00 0.00 53 1009.3
20260507215301 49 195 2.0 2.0 0.00 0.00 0.00 53 1009.6
20260507214758 49 145 1.0 1.0 0.00 0.00 0.00 55 1009.6
20260507214256 49 102 0.0 1.0 0.00 0.00 0.00 54 1009.7
20260507213750 50 163 1.0 1.0 0.00 0.00 0.00 53 1009.4
20260507213248 50 126 0.0 0.0 0.00 0.00 0.00 53 1009.5
20260507212744 50 199 2.0 3.0 0.00 0.00 0.00 52 1009.5
20260507212241 50 120 1.0 1.0 0.00 0.00 0.00 52 1009.5
20260507211737 50 161 0.0 1.0 0.00 0.00 0.00 53 1009.6
20260507211234 50 235 3.0 3.0 0.00 0.00 0.00 51 1009.5
20260507210731 50 156 1.0 1.0 0.00 0.00 0.00 51 1009.7
20260507210228 50 236 1.0 2.0 0.00 0.00 0.00 51 1009.4
20260507205724 50 251 3.0 3.0 0.00 0.00 0.00 51 1009.5
20260507205221 50 171 2.0 2.0 0.00 0.00 0.00 49 1009.3
20260507204717 50 157 1.0 1.0 0.00 0.00 0.00 50 1009.6
20260507204215 50 182 1.0 2.0 0.00 0.00 0.00 53 1009.6
20260507203713 50 228 3.0 5.0 0.00 0.00 0.00 52 1009.6
20260507203210 50 238 3.0 3.0 0.00 0.00 0.00 52 1009.6
20260507202706 51 243 3.0 3.0 0.00 0.00 0.00 49 1009.6
20260507202202 51 239 2.0 2.0 0.00 0.00 0.00 48 1009.4
20260507201657 52 257 5.0 6.0 0.00 0.00 0.00 46 1009.5
20260507201154 51 256 4.0 5.0 0.00 0.00 0.00 46 1009.6
20260507200650 51 171 3.0 3.0 0.00 0.00 0.00 51 1009.6
20260507200146 50 238 2.0 3.0 0.00 0.00 0.00 50 1009.4
20260507195643 51 247 3.0 3.0 0.00 0.00 0.00 51 1009.8
20260507195140 52 208 2.0 2.0 0.00 0.00 0.00 49 1009.8
20260507194637 52 7 2.0 3.0 0.00 0.00 0.00 54 1009.6
20260507194132 52 252 3.0 3.0 0.00 0.00 0.00 51 1009.7
20260507193630 51 213 1.0 2.0 0.00 0.00 0.00 48 1009.5
20260507193127 51 246 2.0 3.0 0.00 0.00 0.00 51 1010.0
20260507192623 50 173 3.0 3.0 0.00 0.00 0.00 55 1009.9
20260507192120 50 179 1.0 2.0 0.00 0.00 0.00 54 1010.0
20260507191615 50 131 0.0 0.0 0.00 0.00 0.00 54 1010.0
20260507191112 50 269 3.0 3.0 0.00 0.00 0.00 54 1010.0
20260507190610 51 248 3.0 3.0 0.00 0.00 0.00 52 1009.9
20260507190109 50 217 2.0 2.0 0.00 0.00 0.00 54 1010.3
20260507185607 50 272 2.0 3.0 0.00 0.00 0.00 53 1010.2
20260507185103 50 301 3.0 3.0 0.00 0.00 0.00 52 1010.1
20260507184601 51 215 2.0 2.0 0.00 0.00 0.00 52 1010.1
20260507184058 50 221 2.0 2.0 0.00 0.00 0.00 51 1010.1
20260507183554 50 194 2.0 2.0 0.00 0.00 0.00 51 1010.3
20260507183052 50 219 4.0 5.0 0.00 0.00 0.00 56 1010.4
20260507182548 50 265 4.0 5.0 0.00 0.00 0.00 54 1010.2
20260507182044 50 238 3.0 3.0 0.00 0.00 0.00 53 1010.4
20260507181541 50 247 3.0 3.0 0.00 0.00 0.00 55 1010.5
20260507181037 50 257 5.0 6.0 0.00 0.00 0.00 56 1010.5
20260507180533 50 184 1.0 1.0 0.00 0.00 0.00 56 1010.5
20260507180031 48 176 1.0 1.0 0.00 0.00 0.00 58 1010.4
20260507175526 49 242 3.0 5.0 0.00 0.00 0.00 63 1010.4
20260507175025 49 238 3.0 3.0 0.00 0.00 0.00 57 1010.8
20260507174521 48 190 1.0 1.0 0.00 0.00 0.00 59 1010.5
20260507174019 49 206 3.0 3.0 0.00 0.00 0.00 59 1010.5
20260507173516 49 192 2.0 2.0 0.00 0.00 0.00 61 1010.8
20260507173013 48 185 1.0 1.0 0.00 0.00 0.00 61 1010.9
20260507172509 49 258 5.0 6.0 0.00 0.00 0.00 57 1010.9
20260507172006 49 212 2.0 2.0 0.00 0.00 0.00 59 1010.8
20260507171501 49 218 3.0 3.0 0.00 0.00 0.00 59 1010.9
20260507171000 47 224 2.0 2.0 0.00 0.00 0.00 61 1011.3
20260507170455 47 189 1.0 1.0 0.00 0.00 0.00 63 1011.1
20260507165952 48 184 0.0 1.0 0.00 0.00 0.00 63 1011.0
20260507165448 48 200 2.0 3.0 0.00 0.00 0.00 61 1011.1
20260507164944 48 239 4.0 5.0 0.00 0.00 0.00 65 1011.1
20260507164441 47 257 6.0 7.0 0.00 0.00 0.00 62 1011.1
20260507163938 47 206 3.0 3.0 0.00 0.00 0.00 66 1011.4
20260507163435 47 243 5.0 6.0 0.00 0.00 0.00 66 1011.3
20260507162932 47 204 2.0 2.0 0.00 0.00 0.00 67 1011.2
20260507162427 47 235 3.0 3.0 0.00 0.00 0.00 65 1011.5
20260507161925 46 210 3.0 3.0 0.00 0.00 0.00 65 1011.6
20260507161421 46 243 3.0 3.0 0.00 0.00 0.00 64 1011.6
20260507160918 46 222 3.0 3.0 0.00 0.00 0.00 66 1011.6
20260507160414 46 192 2.0 2.0 0.00 0.00 0.00 66 1011.5
20260507155910 46 197 1.0 1.0 0.00 0.00 0.00 66 1011.7
20260507155406 47 171 2.0 2.0 0.00 0.00 0.00 65 1011.8
20260507154903 46 182 0.0 0.0 0.00 0.00 0.00 64 1011.6
20260507154400 46 196 2.0 2.0 0.00 0.00 0.00 66 1011.8
20260507153857 45 197 2.0 2.0 0.00 0.00 0.00 65 1012.0
20260507153353 45 105 1.0 1.0 0.00 0.00 0.00 65 1011.9
20260507152850 45 173 0.0 1.0 0.00 0.00 0.00 67 1012.0
20260507152346 45 56 3.0 5.0 0.00 0.00 0.00 65 1012.1
20260507151842 44 66 2.0 3.0 0.00 0.00 0.00 65 1011.9
20260507151338 43 179 1.0 1.0 0.00 0.00 0.00 66 1012.1
20260507150836 44 257 4.0 5.0 0.00 0.00 0.00 66 1012.0
20260507150332 44 187 0.0 0.0 0.00 0.00 0.00 65 1012.0
20260507145828 43 195 2.0 2.0 0.00 0.00 0.00 67 1012.1
20260507145325 43 188 0.0 1.0 0.00 0.00 0.00 66 1012.0
20260507144822 43 191 1.0 1.0 0.00 0.00 0.00 68 1012.2
20260507144320 43 199 2.0 2.0 0.00 0.00 0.00 67 1012.3
20260507143816 43 196 1.0 1.0 0.00 0.00 0.00 69 1012.1
20260507143313 44 185 1.0 1.0 0.00 0.00 0.00 65 1012.2
20260507142809 44 192 1.0 2.0 0.00 0.00 0.00 67 1012.3
20260507142307 43 201 1.0 2.0 0.00 0.00 0.00 70 1012.0
20260507141803 43 202 0.0 1.0 0.00 0.00 0.00 66 1012.1
20260507141300 43 212 1.0 2.0 0.00 0.00 0.00 67 1012.1
20260507140755 43 245 2.0 2.0 0.00 0.00 0.00 67 1012.1
20260507140253 42 186 2.0 2.0 0.00 0.00 0.00 69 1012.2
20260507135750 43 176 2.0 2.0 0.00 0.00 0.00 69 1012.3
20260507135247 43 225 3.0 3.0 0.00 0.00 0.00 69 1012.2
20260507134743 42 236 3.0 3.0 0.00 0.00 0.00 69 1012.4
20260507134240 43 185 0.0 1.0 0.00 0.00 0.00 70 1012.4
20260507133736 43 112 1.0 1.0 0.00 0.00 0.00 67 1012.5
20260507133233 43 178 2.0 2.0 0.00 0.00 0.00 69 1012.1
20260507132730 43 219 1.0 1.0 0.00 0.00 0.00 68 1012.4
20260507132222 43 165 0.0 1.0 0.00 0.00 0.00 69 1012.2
20260507131718 42 190 1.0 1.0 0.00 0.00 0.00 68 1012.1
20260507131216 42 170 0.0 0.0 0.00 0.00 0.00 67 1012.3
20260507130712 42 191 2.0 3.0 0.00 0.00 0.00 69 1012.2
20260507130210 42 205 1.0 2.0 0.00 0.00 0.00 66 1012.3
20260507125708 42 195 1.0 1.0 0.00 0.00 0.00 69 1012.1
20260507125206 42 227 2.0 2.0 0.00 0.00 0.00 68 1012.2
20260507124702 42 259 2.0 2.0 0.00 0.00 0.00 68 1012.5
20260507124159 42 239 2.0 2.0 0.00 0.00 0.00 68 1012.4
20260507123657 42 240 4.0 5.0 0.00 0.00 0.00 69 1012.2
20260507123154 41 218 2.0 3.0 0.00 0.00 0.00 68 1012.2
20260507122649 41 246 3.0 3.0 0.00 0.00 0.00 70 1012.2
20260507122145 41 183 1.0 2.0 0.00 0.00 0.00 70 1012.1
20260507121642 41 226 1.0 2.0 0.00 0.00 0.00 71 1012.3
20260507121138 41 191 2.0 2.0 0.00 0.00 0.00 71 1012.2
20260507120634 41 237 3.0 3.0 0.00 0.00 0.00 74 1012.2
20260507120131 40 189 1.0 2.0 0.00 0.00 0.00 72 1012.0
20260507115627 40 182 1.0 1.0 0.00 0.00 0.00 74 1011.9
20260507115123 39 181 1.0 1.0 0.00 0.00 0.00 75 1011.9
20260507114619 39 178 1.0 1.0 0.00 0.00 0.00 80 1011.9
20260507114116 39 166 0.0 0.0 0.00 0.00 0.00 83 1012.0
20260507113614 39 180 1.0 1.0 0.00 0.00 0.00 83 1012.1
20260507113110 39 174 0.0 1.0 0.00 0.00 0.00 84 1012.1
20260507112608 38 176 0.0 1.0 0.00 0.00 0.00 85 1012.1
20260507112105 38 174 0.0 0.0 0.00 0.00 0.00 86 1012.1
20260507111602 38 173 0.0 1.0 0.00 0.00 0.00 86 1012.0
20260507111058 38 183 1.0 1.0 0.00 0.00 0.00 86 1011.9
20260507110555 38 171 1.0 1.0 0.00 0.00 0.00 87 1011.7
20260507110051 38 165 0.0 0.0 0.00 0.00 0.00 87 1011.7
20260507105548 38 167 0.0 0.0 0.00 0.00 0.00 87 1011.6
20260507105044 37 165 0.0 0.0 0.00 0.00 0.00 87 1011.6
20260507104542 37 165 0.0 0.0 0.00 0.00 0.00 88 1011.6
20260507104038 37 163 0.0 0.0 0.00 0.00 0.00 88 1011.5
20260507103534 37 165 0.0 0.0 0.00 0.00 0.00 88 1011.4
20260507103031 37 181 1.0 1.0 0.00 0.00 0.00 89 1011.6
20260507102528 37 170 0.0 1.0 0.00 0.00 0.00 89 1011.7
20260507102024 37 170 1.0 1.0 0.00 0.00 0.00 89 1011.5
20260507101519 37 168 0.0 0.0 0.00 0.00 0.00 89 1011.5
20260507101016 37 166 0.0 1.0 0.00 0.00 0.00 89 1011.4
20260507100514 37 170 1.0 1.0 0.00 0.00 0.00 89 1011.5
20260507100011 37 174 1.0 1.0 0.00 0.00 0.00 89 1011.5
20260507095509 37 177 1.0 1.0 0.00 0.00 0.00 88 1011.5
20260507095005 37 174 1.0 1.0 0.00 0.00 0.00 88 1011.5
20260507094502 37 176 1.0 1.0 0.00 0.00 0.00 88 1011.4
20260507093959 37 173 1.0 1.0 0.00 0.00 0.00 87 1011.5
20260507093456 37 173 1.0 1.0 0.00 0.00 0.00 87 1011.6
20260507092955 37 170 1.0 1.0 0.00 0.00 0.00 86 1011.5
20260507092451 37 167 0.0 0.0 0.00 0.00 0.00 85 1011.4
20260507091948 37 163 0.0 0.0 0.00 0.00 0.00 85 1011.2
20260507091444 37 164 0.0 0.0 0.00 0.00 0.00 85 1011.3
20260507090940 37 168 1.0 1.0 0.00 0.00 0.00 84 1011.3
20260507090436 37 176 0.0 1.0 0.00 0.00 0.00 85 1011.6
20260507085933 37 165 0.0 0.0 0.00 0.00 0.00 84 1011.6
20260507085430 37 178 1.0 1.0 0.00 0.00 0.00 85 1011.7
20260507084927 37 177 1.0 1.0 0.00 0.00 0.00 85 1011.8
20260507084424 37 166 0.0 0.0 0.00 0.00 0.00 85 1011.7
20260507083921 37 168 1.0 1.0 0.00 0.00 0.00 85 1011.6
20260507083417 37 169 0.0 0.0 0.00 0.00 0.00 85 1011.6
20260507082913 37 175 1.0 1.0 0.00 0.00 0.00 86 1011.7
20260507082409 37 176 1.0 1.0 0.00 0.00 0.00 87 1011.7
20260507081907 38 177 1.0 1.0 0.00 0.00 0.00 87 1011.9
20260507081402 38 174 0.0 1.0 0.00 0.00 0.00 87 1012.1
20260507080859 38 180 1.0 1.0 0.00 0.00 0.00 86 1011.7
20260507080356 38 177 1.0 1.0 0.00 0.00 0.00 86 1011.5
20260507075851 38 179 0.0 1.0 0.00 0.00 0.00 86 1011.5
20260507075347 39 172 1.0 1.0 0.00 0.00 0.00 86 1011.6
20260507074844 39 174 1.0 1.0 0.00 0.00 0.00 86 1011.6
20260507074341 39 165 1.0 1.0 0.00 0.00 0.00 86 1011.3
20260507073838 39 177 1.0 1.0 0.00 0.00 0.00 87 1011.6
20260507073335 39 177 1.0 1.0 0.00 0.00 0.00 87 1011.5
20260507072832 39 175 1.0 2.0 0.00 0.00 0.00 87 1011.5
20260507072330 39 179 0.0 1.0 0.00 0.00 0.00 87 1011.5
20260507071827 39 177 1.0 1.0 0.00 0.00 0.00 86 1011.2
20260507071324 39 164 0.0 0.0 0.00 0.00 0.00 87 1011.2
20260507070820 39 171 0.0 0.0 0.00 0.00 0.00 86 1011.4
20260507070318 39 175 0.0 0.0 0.00 0.00 0.00 86 1011.6
20260507065814 40 169 0.0 0.0 0.00 0.00 0.00 86 1011.6
20260507065311 40 167 0.0 0.0 0.00 0.00 0.00 87 1011.4
20260507064808 40 176 0.0 1.0 0.00 0.00 0.00 86 1011.5
20260507064307 40 166 0.0 0.0 0.00 0.00 0.00 87 1011.4
20260507063804 40 183 1.0 1.0 0.00 0.00 0.00 87 1011.4
20260507063301 40 207 1.0 1.0 0.00 0.00 0.00 87 1011.4
20260507062758 40 186 1.0 1.0 0.00 0.00 0.00 88 1011.5
20260507062255 40 223 2.0 2.0 0.00 0.00 0.00 88 1011.4
20260507061753 40 190 1.0 1.0 0.00 0.00 0.00 88 1011.5
20260507061250 40 207 1.0 1.0 0.00 0.00 0.00 88 1011.8
20260507060749 40 175 1.0 1.0 0.00 0.00 0.00 87 1011.7
20260507060245 40 157 2.0 2.0 0.00 0.00 0.00 87 1011.8
20260507055741 40 182 1.0 1.0 0.00 0.00 0.00 87 1011.7
20260507055237 40 236 2.0 2.0 0.00 0.00 0.00 87 1011.9
20260507054733 40 182 2.0 2.0 0.00 0.00 0.00 87 1011.8
20260507054230 40 235 2.0 3.0 0.00 0.00 0.00 88 1011.8
20260507053727 40 197 2.0 2.0 0.00 0.00 0.00 88 1011.8
20260507053225 40 241 3.0 3.0 0.00 0.00 0.00 89 1011.8
20260507052724 40 202 3.0 3.0 0.00 0.00 0.00 89 1012.1
20260507052220 40 252 3.0 3.0 0.00 0.00 0.00 90 1011.9
20260507051718 41 261 4.0 6.0 0.00 0.00 0.00 91 1011.9
20260507051214 41 203 1.0 2.0 0.00 0.00 0.00 92 1011.8
20260507050711 41 215 3.0 3.0 0.00 0.00 0.00 92 1011.7
20260507050208 41 240 3.0 3.0 0.00 0.00 0.00 92 1011.9
20260507045705 41 212 3.0 3.0 0.00 0.00 0.00 93 1011.8
20260507045201 41 154 2.0 2.0 0.00 0.00 0.00 93 1011.6
20260507044658 41 174 1.0 2.0 0.00 0.00 0.00 94 1011.7
20260507044155 41 193 2.0 2.0 0.00 0.00 0.00 94 1011.8
20260507043651 41 148 2.0 2.0 0.00 0.00 0.00 94 1011.5
20260507043148 41 231 3.0 3.0 0.00 0.00 0.00 94 1011.6
20260507042644 41 189 1.0 2.0 0.00 0.00 0.00 94 1011.7
20260507042139 41 175 2.0 2.0 0.00 0.00 0.00 95 1011.8
20260507041637 41 235 2.0 2.0 0.00 0.00 0.00 95 1011.5
20260507041133 41 233 2.0 2.0 0.00 0.00 0.00 95 1011.3
20260507040630 42 165 2.0 2.0 0.00 0.00 0.00 95 1011.3
20260507040127 42 217 2.0 2.0 0.00 0.00 0.00 95 1011.5
20260507035622 42 203 2.0 2.0 0.00 0.63 0.63 95 1011.3
20260507035119 42 230 2.0 2.0 0.00 0.63 0.63 95 1011.2
20260507034616 42 253 2.0 2.0 0.00 0.63 0.63 95 1011.1
20260507034113 42 196 1.0 2.0 0.00 0.63 0.63 95 1011.0
20260507033612 43 186 1.0 1.0 0.00 0.63 0.63 95 1011.1
20260507033108 43 180 0.0 1.0 0.00 0.63 0.63 95 1011.3
20260507032606 43 189 2.0 2.0 0.00 0.63 0.63 95 1011.0
20260507032101 43 172 0.0 1.0 0.00 0.63 0.63 95 1011.1
20260507031558 43 191 2.0 2.0 0.00 0.63 0.63 95 1011.2
20260507031055 43 199 3.0 3.0 0.00 0.63 0.63 95 1011.1
20260507030551 43 172 1.0 1.0 0.00 0.63 0.63 95 1011.0
20260507030050 43 211 3.0 3.0 0.00 0.63 0.63 95 1011.0
20260507025546 43 181 1.0 2.0 0.00 0.63 0.63 95 1010.7
20260507025044 43 169 0.0 0.0 0.00 0.63 0.63 95 1010.9
20260507024542 43 176 1.0 1.0 0.00 0.63 0.63 95 1010.9
20260507024038 43 174 1.0 1.0 0.00 0.63 0.63 95 1011.1
20260507023534 43 167 0.0 1.0 0.00 0.63 0.63 95 1011.1
20260507023032 43 165 0.0 0.0 0.00 0.63 0.63 95 1011.0
20260507022528 43 188 2.0 2.0 0.00 0.63 0.63 95 1011.1
20260507022023 43 172 0.0 0.0 0.00 0.63 0.63 95 1011.2
20260507021519 43 172 0.0 0.0 0.00 0.63 0.63 95 1011.2
20260507021016 43 171 0.0 0.0 0.00 0.63 0.63 95 1011.1
20260507020514 43 167 0.0 0.0 0.00 0.63 0.63 95 1011.2
20260507020010 43 163 0.0 0.0 0.00 0.63 0.63 95 1011.0
20260507015509 43 168 0.0 0.0 0.00 0.63 0.63 95 1011.1
20260507015006 43 171 0.0 1.0 0.00 0.63 0.63 95 1011.2
20260507014502 43 169 0.0 1.0 0.00 0.63 0.63 95 1011.2
20260507013958 43 163 0.0 0.0 0.00 0.63 0.63 95 1010.9
20260507013455 43 163 0.0 0.0 0.00 0.63 0.63 95 1011.3
20260507012952 43 170 0.0 0.0 0.00 0.63 0.63 95 1011.3